STARLINK-3697, 51962

Orbit data source: Space-Track

STARLINK-3697, 51962 is a payload satellite owned by SpaceX/Seattle (US) in LEO that was launched on Wed, 09 Mar 2022 UTC via an FALCON 9 launch vehicle from the Air Force Eastern Test Range (AFETR). Payload-class satellites include a variety of spacecraft equipped with specific instruments for various scientific and technological missions. These include communications satellites like Starlink; space stations such as the ISS; scientific satellites like the Hubble; Earth observation satellites from companies like Planet Labs, Umbra, and HawkEye 360; GPS; miniature CubeSats for education and research; and military/defense satellites.

Loading next visibility...
Identifier
51962, 2022-025G
Orbit
LEO
Country
Flag of USUS
Related business
Manufacturer
SpaceX/Seattle
Mission
Operational Commercial Communications
Bus & Motor
STARLINK, Unknown motor
Mass
297 kg wet, ~275 kg dry
Launch date (UTC)
2022-03-09 (4 years ago)
Launch vehicle
FALCON 9
Launch site
Air Force Eastern Test Range (AFETR)
Object type
Payload
Rocket body
Debris
Shape & HBR
Box + 1 Pan, 10.1 m
Radar Cross Section
13.562 m², Large (>1 m²)

Expand to show TLE details & history
Last TLE update: 13 hours ago

TLE from 13 hours ago
0 STARLINK-3697
1 51962U 22025G   25346.91853955  .00000363  00000-0  43249-4 0  9997
2 51962  53.0558  55.9572 0000721  78.7776 281.3294 15.06398535207908
Epoch: 2025-12-12T22:02Z
TLE epoch observation values (Epoch: 2025-12-12T22:02:41.817Z)
Latitude
-0°
Longitude
3.42969°
Altitude
547.997 km
Speed
7.589 km/s
True Right ascension
03h 43m 49s
True Declination
0° 00' 00"
Sunlit
Object was in full shadow at epoch
Visualization orbit readout
Latitude
Unknown
Longitude
Unknown
Altitude
Unknown
Speed
Unknown
Apparent Right ascension
Unknown
Apparent Declination
Unknown
Sunlit
N/A
Visualization observer readout
Local Sidereal Time
09:14:38
Azimuth
Unknown
Elevation
Unknown
Doppler factor
Unknown
Orbital elements
Apogee altitude
547.986 km
Perigee altitude
546.987 km
Semi-major axis
6,925.624 km
Eccentricity
0.00007
Inclination
53.0558°
RAAN
55.9572°
Arg. of periapsis
78.7776°
True anomaly
281.3213°
Mean anomaly
281.3294°
Eccentric anomaly
281.32535°
Mean motion
3.76578 °/min
Orbital period
95.6 mins
BSTAR
0.000043249
Loading maneuver chart data...
Computing Atmospheric mass density...
Loading historical data...
Loading historical data...
Loading historical data...
Loading historical data...
Loading historical data...
Loading historical data...
Loading historical data...

Documentation

Showing up to 5 results
|